NN5DX-13 Weather Reports


time (UTC)temp
C
wind
direction
speed
KPH
gust
KPH
rain 1hr
cm
rain 24hr
cm
rain mn
cm
humidity
%
barometer
mb
20260507125016 13 0.0 0.0 0.00 0.00 0.00 84 1018.6
20260507124517 13 0.0 0.0 0.00 0.00 0.00 85 1018.6
20260507124016 13 0.0 3.2 0.00 0.00 0.00 85 1018.5
20260507123516 13 90 1.6 12.9 0.00 0.00 0.00 85 1018.4
20260507123016 13 0.0 9.7 0.00 0.00 0.00 85 1018.5
20260507122516 13 0.0 0.0 0.00 0.00 0.00 85 1018.2
20260507122016 13 0.0 0.0 0.00 0.00 0.00 85 1018.3
20260507121516 13 0.0 0.0 0.00 0.00 0.00 84 1018.1
20260507121015 13 0.0 3.2 0.00 0.00 0.00 83 1018.0
20260507120516 13 90 1.6 11.3 0.00 0.00 0.00 82 1017.9
20260507120016 13 90 1.6 12.9 0.00 0.00 0.00 82 1017.6
20260507115515 13 0.0 3.2 0.00 0.00 0.00 81 1017.5
20260507115015 14 0.0 1.6 0.00 0.00 0.00 81 1017.6
20260507114516 14 0.0 1.6 0.00 0.00 0.00 80 1017.6
20260507114015 14 0.0 3.2 0.00 0.00 0.00 80 1017.8
20260507113516 14 68 1.6 8.0 0.00 0.00 0.00 79 1017.8
20260507113016 15 68 4.8 16.1 0.00 0.00 0.00 79 1017.8
20260507112516 15 0.0 0.0 0.00 0.00 0.00 79 1017.8
20260507112016 15 0.0 0.0 0.00 0.00 0.00 79 1017.8
20260507111515 15 0.0 0.0 0.00 0.00 0.00 79 1017.6
20260507111016 15 0.0 0.0 0.00 0.00 0.00 78 1017.6
20260507110516 15 0.0 0.0 0.00 0.00 0.00 78 1017.7
20260507110015 15 0.0 0.0 0.00 0.00 0.00 78 1017.5
20260507105516 15 0.0 0.0 0.00 0.00 0.00 78 1017.6
20260507105015 15 0.0 0.0 0.00 0.00 0.00 78 1017.4
20260507104516 15 0.0 0.0 0.00 0.00 0.00 78 1017.1
20260507104016 16 0.0 0.0 0.00 0.00 0.00 77 1017.3
20260507103515 16 68 1.6 20.9 0.00 0.00 0.00 77 1016.6
20260507103015 16 68 1.6 20.9 0.00 0.00 0.00 78 1016.6
20260507102516 16 0.0 1.6 0.00 0.00 0.00 76 1016.4
20260507102018 16 0.0 1.6 0.00 0.00 0.00 75 1016.0
20260507101518 16 0.0 6.4 0.00 0.00 0.00 75 1016.2
20260507101018 16 0.0 0.0 0.00 0.00 0.00 76 1016.2
20260507100517 16 0.0 3.2 0.00 0.00 0.00 75 1015.7
20260507100018 16 0.0 0.0 0.00 0.00 0.00 74 1015.7
20260507095517 16 0.0 0.0 0.00 0.00 0.00 72 1015.7
20260507095017 16 0.0 0.0 0.00 0.00 0.00 70 1015.6
20260507094518 16 0.0 0.0 0.00 0.00 0.00 69 1015.6
20260507094017 16 0.0 0.0 0.00 0.00 0.00 67 1015.7
20260507093518 16 0.0 0.0 0.00 0.00 0.00 66 1015.6
20260507093018 16 0.0 0.0 0.00 0.00 0.00 65 1015.6
20260507092518 16 0.0 1.6 0.00 0.00 0.00 63 1015.6
20260507092017 16 0.0 0.0 0.00 0.00 0.00 60 1015.7
20260507091517 17 0.0 0.0 0.00 0.00 0.00 59 1015.9
20260507091017 17 0.0 0.0 0.00 0.00 0.00 59 1015.8
20260507090518 17 0.0 0.0 0.00 0.00 0.00 59 1015.9
20260507090018 17 0.0 0.0 0.00 0.00 0.00 57 1015.8
20260507085517 17 0.0 0.0 0.00 0.00 0.00 56 1015.8
20260507085019 17 0.0 0.0 0.00 0.00 0.00 55 1015.9
20260507084517 18 0.0 0.0 0.00 0.00 0.00 54 1015.9
20260507084018 18 0.0 0.0 0.00 0.00 0.00 53 1016.2
20260507083516 18 0.0 0.0 0.00 0.00 0.00 53 1016.0
20260507083018 18 0.0 0.0 0.00 0.00 0.00 53 1015.9
20260507082517 18 0.0 0.0 0.00 0.00 0.00 53 1016.1
20260507082017 18 0.0 0.0 0.00 0.00 0.00 53 1016.2
20260507081517 18 0.0 0.0 0.00 0.00 0.00 54 1016.0
20260507081017 18 0.0 0.0 0.00 0.00 0.00 54 1016.2
20260507080517 18 0.0 0.0 0.00 0.00 0.00 54 1015.9
20260507080017 18 0.0 0.0 0.00 0.00 0.00 54 1015.9
20260507075517 18 0.0 0.0 0.00 0.00 0.00 54 1016.0
20260507075018 18 0.0 0.0 0.00 0.00 0.00 54 1015.9
20260507074518 18 0.0 0.0 0.00 0.00 0.00 53 1015.9
20260507074018 18 0.0 0.0 0.00 0.00 0.00 51 1016.2
20260507073517 18 0.0 3.2 0.00 0.00 0.00 50 1016.0
20260507073017 18 0.0 0.0 0.00 0.00 0.00 48 1016.0
20260507072518 18 0.0 0.0 0.00 0.00 0.00 46 1016.0
20260507072017 19 0.0 0.0 0.00 0.00 0.00 46 1015.9
20260507071517 18 0.0 0.0 0.00 0.00 0.00 46 1015.9
20260507071017 18 0.0 0.0 0.00 0.00 0.00 47 1015.8
20260507070517 18 0.0 0.0 0.00 0.00 0.00 47 1015.5
20260507070017 18 0.0 0.0 0.00 0.00 0.00 47 1015.5
20260507065517 18 0.0 0.0 0.00 0.00 0.00 48 1015.5
20260507065018 18 0.0 0.0 0.00 0.00 0.00 48 1015.5
20260507064518 18 0.0 0.0 0.00 0.00 0.00 50 1015.4
20260507064017 18 0.0 0.0 0.00 0.00 0.00 49 1015.5
20260507063518 18 0.0 0.0 0.00 0.00 0.00 51 1015.5
20260507063018 18 0.0 0.0 0.00 0.00 0.00 49 1015.4
20260507062517 19 0.0 0.0 0.00 0.00 0.00 49 1015.5
20260507062017 19 0.0 0.0 0.00 0.00 0.00 49 1015.0
20260507061517 18 0.0 0.0 0.00 0.00 0.00 51 1014.7
20260507061017 19 0.0 0.0 0.00 0.00 0.00 53 1014.8
20260507060517 19 0.0 0.0 0.00 0.00 0.00 54 1014.6
20260507060017 20 0.0 0.0 0.00 0.00 0.00 54 1014.5
20260507055518 20 0.0 0.0 0.00 0.00 0.00 54 1014.5
20260507055018 20 0.0 0.0 0.00 0.00 0.00 55 1014.5
20260507054518 20 0.0 0.0 0.00 0.00 0.00 55 1014.3
20260507054018 20 0.0 0.0 0.00 0.00 0.00 55 1014.3
20260507053518 20 0.0 0.0 0.00 0.00 0.00 55 1014.3
20260507053017 20 0.0 0.0 0.00 0.00 0.00 55 1014.2
20260507052517 20 0.0 1.6 0.00 0.00 0.00 55 1014.2
20260507052017 20 0.0 1.6 0.00 0.00 0.00 55 1014.1
20260507051517 20 0.0 0.0 0.00 0.00 0.00 54 1014.1
20260507051017 20 0.0 9.7 0.00 0.00 0.00 55 1014.1
20260507050518 20 0.0 0.0 0.00 0.00 0.00 54 1014.7
20260507050017 20 0.0 0.0 0.00 0.00 0.00 54 1014.6
20260507045516 20 0.0 0.0 0.00 0.00 0.00 53 1014.5
20260507045016 20 0.0 0.0 0.00 0.00 0.00 52 1014.7
20260507044517 20 0.0 0.0 0.00 0.00 0.00 52 1014.6
20260507044018 20 0.0 0.0 0.00 0.00 0.00 51 1014.6
20260507043516 20 0.0 0.0 0.00 0.00 0.00 48 1014.6
20260507043016 20 0.0 0.0 0.00 0.00 0.00 48 1014.6
20260507042517 20 0.0 0.0 0.00 0.00 0.00 48 1014.6
20260507042016 20 0.0 0.0 0.00 0.00 0.00 46 1014.4
20260507041516 20 0.0 0.0 0.00 0.00 0.00 44 1014.4
20260507041016 20 0.0 0.0 0.00 0.00 0.00 43 1014.4
20260507040516 20 0.0 0.0 0.00 0.00 0.00 42 1014.2
20260507040016 20 0.0 0.0 0.00 0.00 0.00 41 1014.1
20260507035516 20 0.0 0.0 0.00 0.00 0.00 40 1014.0
20260507035016 21 0.0 0.0 0.00 0.00 0.00 39 1014.1
20260507034516 20 0.0 0.0 0.00 0.00 0.00 39 1014.0
20260507034016 20 0.0 0.0 0.00 0.00 0.00 39 1013.9
20260507033516 20 0.0 0.0 0.00 0.00 0.00 39 1013.7
20260507033016 20 0.0 0.0 0.00 0.00 0.00 39 1013.7
20260507032517 21 0.0 0.0 0.00 0.00 0.00 39 1013.8
20260507032016 21 0.0 0.0 0.00 0.00 0.00 38 1013.8
20260507031516 21 0.0 0.0 0.00 0.00 0.00 37 1013.6
20260507031016 21 0.0 0.0 0.00 0.00 0.00 37 1013.5
20260507030516 21 0.0 0.0 0.00 0.00 0.00 37 1013.3
20260507030017 21 0.0 0.0 0.00 0.00 0.00 37 1013.3
20260507025516 21 0.0 1.6 0.00 0.00 0.00 37 1013.2
20260507025017 22 0.0 0.0 0.00 0.00 0.00 36 1013.0
20260507024517 22 0.0 0.0 0.00 0.00 0.00 36 1013.3
20260507024017 22 0.0 0.0 0.00 0.00 0.00 35 1013.1
20260507023517 22 0.0 0.0 0.00 0.00 0.00 35 1012.9
20260507023017 22 0.0 0.0 0.00 0.00 0.00 34 1012.8
20260507022517 22 0.0 0.0 0.00 0.00 0.00 34 1012.7
20260507022017 23 0.0 0.0 0.00 0.00 0.00 33 1012.8
20260507021517 23 0.0 3.2 0.00 0.00 0.00 33 1012.8
20260507021017 23 0.0 6.4 0.00 0.00 0.00 32 1012.7
20260507020518 23 0.0 0.0 0.00 0.00 0.00 32 1012.6
20260507020016 23 0.0 0.0 0.00 0.00 0.00 32 1012.6
20260507015516 23 0.0 0.0 0.00 0.00 0.00 31 1012.5
20260507015016 24 0.0 0.0 0.00 0.00 0.00 31 1012.5
20260507014516 24 0.0 0.0 0.00 0.00 0.00 30 1012.4
20260507014016 24 0.0 0.0 0.00 0.00 0.00 30 1012.3
20260507013516 25 0.0 0.0 0.00 0.00 0.00 30 1012.2
20260507013017 25 0.0 0.0 0.00 0.00 0.00 29 1012.1
20260507012516 25 0.0 0.0 0.00 0.00 0.00 29 1011.9
20260507012017 25 0.0 0.0 0.00 0.00 0.00 29 1011.9
20260507011516 25 0.0 0.0 0.00 0.00 0.00 28 1011.8
20260507011016 25 0.0 0.0 0.00 0.00 0.00 28 1011.7
20260507010517 26 0.0 0.0 0.00 0.00 0.00 29 1011.7
20260507010016 26 0.0 0.0 0.00 0.00 0.00 28 1011.7
20260507005516 26 0.0 0.0 0.00 0.00 0.00 28 1011.7
20260507005016 26 0.0 0.0 0.00 0.00 0.00 28 1011.6
20260507004516 26 0.0 0.0 0.00 0.00 0.00 28 1011.6
20260507004016 26 0.0 0.0 0.00 0.00 0.00 28 1011.6
20260507003517 26 0.0 0.0 0.00 0.00 0.00 28 1011.7
20260507003016 26 0.0 0.0 0.00 0.00 0.00 28 1011.7
20260507002517 26 0.0 0.0 0.00 0.00 0.00 28 1011.7
20260507002016 26 113 1.6 12.9 0.00 0.00 0.00 27 1011.7
20260507001516 26 0.0 0.0 0.00 0.00 0.00 27 1011.7
20260507001016 26 0.0 0.0 0.00 0.00 0.00 27 1011.7
20260507000516 26 0.0 0.0 0.00 0.00 0.00 28 1011.5
20260507000016 26 0.0 0.0 0.00 0.00 0.00 28 1011.5
20260506235516 26 0.0 0.0 0.00 0.00 0.00 28 1011.5
20260506235017 26 0.0 0.0 0.00 0.00 0.00 28 1011.5
20260506234516 26 0.0 0.0 0.00 0.00 0.00 28 1011.5
20260506234016 27 0.0 1.6 0.00 0.00 0.00 28 1011.5
20260506233517 27 0.0 0.0 0.00 0.00 0.00 27 1011.7
20260506233016 27 0.0 4.8 0.00 0.00 0.00 27 1011.7
20260506232517 27 0.0 0.0 0.00 0.00 0.00 27 1011.8
20260506232016 27 0.0 0.0 0.00 0.00 0.00 27 1011.8
20260506231516 27 0.0 1.6 0.00 0.00 0.00 26 1011.7
20260506231016 27 0.0 1.6 0.00 0.00 0.00 26 1011.9
20260506230516 27 0.0 0.0 0.00 0.00 0.00 26 1011.8
20260506230016 27 0.0 0.0 0.00 0.00 0.00 25 1011.7
20260506225516 28 0.0 0.0 0.00 0.00 0.00 25 1011.8
20260506225016 28 0.0 0.0 0.00 0.00 0.00 25 1011.9
20260506224516 28 0.0 0.0 0.00 0.00 0.00 25 1011.9
20260506224016 28 0.0 0.0 0.00 0.00 0.00 25 1012.0
20260506223516 27 0.0 0.0 0.00 0.00 0.00 25 1012.1
20260506223016 27 0.0 0.0 0.00 0.00 0.00 25 1012.2
20260506222516 27 0.0 0.0 0.00 0.00 0.00 27 1012.0
20260506222016 27 0.0 0.0 0.00 0.00 0.00 26 1012.1
20260506221516 26 0.0 0.0 0.00 0.00 0.00 27 1012.1
20260506221016 26 0.0 0.0 0.00 0.00 0.00 29 1012.1
20260506220516 26 0.0 0.0 0.00 0.00 0.00 28 1011.9
20260506220016 26 0.0 0.0 0.00 0.00 0.00 29 1011.9
20260506215516 26 0.0 0.0 0.00 0.00 0.00 28 1011.8
20260506215016 26 0.0 0.0 0.00 0.00 0.00 28 1012.1
20260506214517 26 0.0 1.6 0.00 0.00 0.00 28 1012.1
20260506214016 27 0.0 0.0 0.00 0.00 0.00 28 1012.0
20260506213516 27 0.0 0.0 0.00 0.00 0.00 29 1012.1
20260506213017 27 0.0 0.0 0.00 0.00 0.00 29 1012.1
20260506212516 27 0.0 0.0 0.00 0.00 0.00 26 1012.3
20260506212016 27 0.0 0.0 0.00 0.00 0.00 27 1012.5
20260506211516 27 0.0 0.0 0.00 0.00 0.00 28 1012.5
20260506211016 27 0.0 0.0 0.00 0.00 0.00 29 1012.7
20260506210516 27 0.0 0.0 0.00 0.00 0.00 27 1012.8
20260506210016 26 0.0 0.0 0.00 0.00 0.00 27 1012.6
20260506205517 26 45 1.6 6.4 0.00 0.00 0.00 27 1012.8
20260506205016 26 0.0 4.8 0.00 0.00 0.00 28 1012.8
20260506204516 27 0.0 8.0 0.00 0.00 0.00 28 1013.1
20260506204017 27 0.0 0.0 0.00 0.00 0.00 27 1013.1
20260506203516 27 0.0 0.0 0.00 0.00 0.00 28 1013.1
20260506203016 26 0.0 0.0 0.00 0.00 0.00 30 1013.0
20260506202516 26 0.0 0.0 0.00 0.00 0.00 31 1013.1
20260506202016 26 0.0 0.0 0.00 0.00 0.00 30 1013.1
20260506201516 26 0.0 0.0 0.00 0.00 0.00 30 1013.2
20260506201016 26 0.0 0.0 0.00 0.00 0.00 30 1013.2
20260506200516 26 0.0 0.0 0.00 0.00 0.00 31 1013.3
20260506200017 26 0.0 0.0 0.00 0.00 0.00 30 1013.3
20260506195516 26 0.0 0.0 0.00 0.00 0.00 31 1013.4
20260506195019 25 0.0 0.0 0.00 0.00 0.00 32 1013.4
20260506194516 25 0.0 0.0 0.00 0.00 0.00 34 1013.3
20260506194017 24 0.0 0.0 0.00 0.00 0.00 34 1013.3
20260506193516 25 68 1.6 8.0 0.00 0.00 0.00 34 1013.4
20260506193017 25 68 1.6 16.1 0.00 0.00 0.00 34 1013.4
20260506192517 24 45 1.6 8.0 0.00 0.00 0.00 35 1013.4
20260506192018 24 0.0 0.0 0.00 0.00 0.00 37 1013.5
20260506191516 24 0.0 6.4 0.00 0.00 0.00 37 1013.6
20260506191016 23 90 1.6 11.3 0.00 0.00 0.00 38 1013.3
20260506190516 23 0.0 0.0 0.00 0.00 0.00 38 1013.5
20260506190017 23 68 1.6 14.5 0.00 0.00 0.00 38 1013.6
20260506185516 23 0.0 4.8 0.00 0.00 0.00 39 1013.5
20260506185016 23 0.0 4.8 0.00 0.00 0.00 39 1013.7
20260506184516 23 113 1.6 12.9 0.00 0.00 0.00 40 1013.7
20260506184016 23 0.0 3.2 0.00 0.00 0.00 41 1013.6
20260506183516 22 68 3.2 19.3 0.00 0.00 0.00 40 1013.6
20260506183016 22 0.0 0.0 0.00 0.00 0.00 43 1013.6
20260506182516 22 0.0 3.2 0.00 0.00 0.00 41 1013.7
20260506182016 22 0.0 1.6 0.00 0.00 0.00 41 1013.7
20260506181516 22 0.0 1.6 0.00 0.00 0.00 42 1013.7
20260506181016 22 0.0 11.3 0.00 0.00 0.00 40 1013.7
20260506180516 22 0.0 1.6 0.00 0.00 0.00 42 1013.7
20260506180017 22 0.0 4.8 0.00 0.00 0.00 42 1013.8
20260506175517 22 0.0 6.4 0.00 0.00 0.00 42 1013.9
20260506175016 22 0.0 1.6 0.00 0.00 0.00 43 1013.9
20260506174516 22 0.0 1.6 0.00 0.00 0.00 43 1013.8
20260506174016 21 68 3.2 19.3 0.00 0.00 0.00 44 1013.7
20260506173516 21 0.0 1.6 0.00 0.00 0.00 46 1014.0
20260506173016 21 0.0 6.4 0.00 0.00 0.00 46 1013.9
20260506172516 21 0.0 11.3 0.00 0.00 0.00 48 1013.9
20260506172016 21 0.0 4.8 0.00 0.00 0.00 47 1013.9
20260506171516 21 0.0 1.6 0.00 0.00 0.00 48 1014.0
20260506171017 21 45 1.6 14.5 0.00 0.00 0.00 48 1014.0
20260506170517 22 68 3.2 22.5 0.00 0.00 0.00 45 1013.8
20260506170017 22 45 1.6 9.7 0.00 0.00 0.00 39 1013.9
20260506165517 23 68 3.2 22.5 0.00 0.00 0.00 36 1013.9
20260506165016 24 0.0 0.0 0.00 0.00 0.00 27 1013.9
20260506164516 24 0.0 8.0 0.00 0.00 0.00 25 1013.7
20260506164016 24 0.0 0.0 0.00 0.00 0.00 25 1013.6
20260506163516 24 0.0 9.7 0.00 0.00 0.00 26 1013.7
20260506163017 24 0.0 6.4 0.00 0.00 0.00 25 1013.6
20260506162516 24 0.0 1.6 0.00 0.00 0.00 24 1013.6
20260506162016 24 0.0 6.4 0.00 0.00 0.00 24 1013.6
20260506161516 24 0.0 1.6 0.00 0.00 0.00 24 1013.6
20260506161016 24 338 3.2 24.1 0.00 0.00 0.00 24 1013.6
20260506160516 24 338 1.6 9.7 0.00 0.00 0.00 25 1013.7
20260506160016 24 0 1.6 14.5 0.00 0.00 0.00 24 1013.6
20260506155516 23 315 1.6 14.5 0.00 0.00 0.00 25 1013.5
20260506155016 23 0.0 3.2 0.00 0.00 0.00 25 1013.5
20260506154516 23 0.0 6.4 0.00 0.00 0.00 25 1013.5
20260506154016 23 0.0 0.0 0.00 0.00 0.00 26 1013.4
20260506153516 23 0.0 4.8 0.00 0.00 0.00 26 1013.4
20260506153016 23 315 1.6 4.8 0.00 0.00 0.00 27 1013.4
20260506152516 23 0.0 6.4 0.00 0.00 0.00 28 1013.4
20260506152016 22 0.0 4.8 0.00 0.00 0.00 28 1013.3
20260506151516 22 0.0 3.2 0.00 0.00 0.00 28 1013.0
20260506151016 22 0.0 0.0 0.00 0.00 0.00 31 1012.9
20260506150517 21 0.0 0.0 0.00 0.00 0.00 32 1013.1
20260506150017 21 0.0 0.0 0.00 0.00 0.00 31 1013.1
20260506145516 21 0.0 0.0 0.00 0.00 0.00 32 1013.0
20260506145017 21 0.0 0.0 0.00 0.00 0.00 33 1013.1
20260506144516 21 0.0 0.0 0.00 0.00 0.00 33 1012.9
20260506144016 21 0.0 0.0 0.00 0.00 0.00 33 1012.9
20260506143516 21 0.0 0.0 0.00 0.00 0.00 32 1013.0
20260506143017 21 0.0 0.0 0.00 0.00 0.00 34 1012.9
20260506142516 20 0.0 4.8 0.00 0.00 0.00 33 1012.7
20260506142016 20 0.0 0.0 0.00 0.00 0.00 34 1012.7
20260506141516 20 0.0 0.0 0.00 0.00 0.00 35 1012.6
20260506141016 20 0.0 1.6 0.00 0.00 0.00 39 1012.7
20260506140516 19 0.0 0.0 0.00 0.00 0.00 40 1012.6
20260506140016 19 0.0 0.0 0.00 0.00 0.00 44 1012.7
20260506135516 19 0.0 0.0 0.00 0.00 0.00 50 1012.7
20260506135016 19 0.0 0.0 0.00 0.00 0.00 47 1012.7
20260506134516 19 0.0 0.0 0.00 0.00 0.00 40 1012.5
20260506134017 19 0.0 0.0 0.00 0.00 0.00 40 1012.5
20260506133516 19 0.0 0.0 0.00 0.00 0.00 41 1012.6
20260506133016 19 0.0 0.0 0.00 0.00 0.00 40 1012.3
20260506132516 18 0.0 0.0 0.00 0.00 0.00 42 1012.3
20260506132016 18 0.0 0.0 0.00 0.00 0.00 44 1012.2
20260506131516 18 0.0 0.0 0.00 0.00 0.00 44 1012.1
20260506131016 18 0.0 0.0 0.00 0.00 0.00 44 1012.0
20260506130516 19 0.0 0.0 0.00 0.00 0.00 44 1012.2
20260506130016 19 0.0 0.0 0.00 0.00 0.00 43 1012.1
20260506125516 19 0.0 0.0 0.00 0.00 0.00 43 1012.1